Location: Camerons Lookout
(40.9833°S, 175.9333°E)
Time: 20:00:38
(UTC+00:00)

ERS-1 Rocket - Pass Details

Date: 14 January 2026
Orbit: 746 x 752 km, 98.2° (Epoch: 13 February)

Event Time Altitude Azimuth Distance (km) Brightness Sun altitude
Rises 08:49:46 0° 157° (SSE) 3,232 6.5 -10.2°
Reaches altitude 10° 08:52:20 10° 147° (SSE) 2,300 5.6 -10.5°
Maximum altitude 08:56:50 32° 84° (E) 1,293 3.8 -11.2°
Enters shadow 09:00:33 14° 26° (NNE) 2,027 4.6 -11.7°
